CAPE
1575 779 757 1244 722 691 534 768 1422 1933 1927 2112 2230 2225 2196 1979 1986 1975 1947 1884 1792 1178
1408 1365 990 1538 1246 747 1192 600 1326 1760 1886 1980 2083 2212 2292 2054 2301 2105 2270 2161 2213 1917
1221 1322 1374 1376 1444 1406 903 991 990 1783 1893 2061 2097 2225 2394 2086 2313 2550 2347 2063 2182 2167
981 1012 1143 994 1094 1594 1159 1319 1550 1862 1947 2063 2133 2249 2476 2396 2245 2552 2633 2466 2300 2389
964 1021 875 1264 997 1387 1669 1389 1620 1702 1908 2031 2060 2141 2333 2266 1998 2454 2522 2597 2608 2458
986 909 1311 1427 1385 1450 1605 1718 1325 1560 1775 1998 2002 2122 2237 2312 2378 2411 2398 2485 2695 2727
1267 1343 1304 1647 1783 1341 1857 1816 1769 1764 1902 1849 1979 2062 2155 2268 2423 2495 2472 2561 2612 2709
1479 1609 1765 1940 2011 1762 1741 1976 2018 1905 1743 1827 1801 1703 2128 2343 2521 2626 2672 2677 2737 2771
1737 1855 1941 2108 2182 2040 1971 1953 2180 1835 2059 1924 1656 1051 1025 1738 2301 2742 2869 2824 2806 2815
2022 2040 2139 2246 2401 2534 2298 2061 2213 1922 1983 2199 2480 1263 436 368 1927 2421 2699 2897 2954 2895
2198 2173 2260 2320 2382 2575 2514 2608 2519 2198 2295 2304 2526 1517 402 2 1411 2602 3004 3092 2898 3199
2324 2357 2427 2402 2402 2197 2084 2151 2419 2321 2486 2460 2532 1196 556 17 1615 2093 2889 2997 2970 3002
2531 2611 2690 2809 2824 2820 2466 2136 2003 2115 2396 2239 2773 1948 50 0 1601 2071 2022 2899 3132 2071
2819 2899 3000 3114 3202 2839 2631 2832 2669 2494 2596 2474 2288 2423 683 0 1639 1986 2214 2294 2388 2550
CIN
-52 -59 -59 -50 -43 -43 -46 -36 -26 -32 -32 -30 -21 -13 -13 -7 -3 -6 -5 -11 -15 -9
-72 -65 -65 -56 -74 -54 -50 -53 -36 -24 -28 -28 -23 -18 -12 -4 -5 -8 -5 -2 -4 -6
-98 -99 -79 -78 -83 -59 -72 -70 -54 -30 -29 -26 -24 -20 -12 -6 -3 -1 -2 -4 -2 -7
-121 -132 -110 -109 -111 -75 -78 -72 -52 -36 -31 -27 -25 -26 -15 -14 -9 -2 -1 -3 -6 -5
-150 -142 -144 -109 -127 -100 -75 -73 -57 -46 -37 -30 -32 -29 -24 -21 -16 -10 -6 -5 -3 -6
-148 -158 -127 -130 -113 -116 -99 -71 -81 -67 -51 -34 -37 -34 -36 -30 -26 -20 -23 -20 -10 -14
-159 -157 -153 -133 -108 -138 -112 -83 -75 -85 -65 -54 -47 -37 -37 -37 -33 -33 -29 -31 -29 -29
-196 -163 -143 -117 -110 -129 -125 -96 -82 -81 -93 -80 -64 -65 -66 -57 -45 -40 -36 -39 -40 -48
-199 -162 -148 -122 -111 -110 -118 -119 -78 -94 -78 -93 -99 -162 -214 -139 -73 -51 -48 -58 -68 -73
-189 -169 -149 -123 -95 -81 -99 -114 -89 -102 -109 -98 -88 -205 -389 -451 -116 -72 -68 -67 -70 -72
-197 -174 -140 -116 -108 -89 -85 -79 -92 -108 -110 -116 -105 -239 -476 -405 -224 -79 -58 -58 -83 -56
-220 -175 -135 -132 -130 -142 -142 -129 -113 -126 -112 -133 -145 -362 -533 -658 -231 -166 -96 -79 -84 -80
-213 -178 -147 -131 -118 -120 -145 -174 -175 -174 -165 -197 -143 -269 -838 0 -266 -203 -233 -125 -110 -255
-227 -193 -173 -152 -124 -137 -145 -123 -153 -181 -185 -210 -244 -222 -635 0 -344 -255 -217 -205 -191 -181
Wind_Speed
16 12 12 13 11 10 9 9 9 10 10 10 8 7 7 6 6 5 5 6 4 3
15 15 13 14 12 10 9 8 11 11 10 10 10 10 8 7 7 6 6 6 6 6
16 16 14 12 13 13 11 11 11 11 11 10 10 10 10 8 8 7 7 6 6 6
16 17 15 14 14 13 13 13 13 12 11 10 11 11 10 10 10 9 9 8 8 9
17 17 17 16 15 14 14 13 13 13 12 11 11 11 11 11 11 11 11 11 10 11
19 18 17 16 16 15 15 14 14 13 14 13 12 11 11 12 12 12 12 12 12 11
19 19 18 16 16 17 15 15 15 15 14 14 13 13 12 12 12 12 12 12 12 13
19 17 16 16 16 16 16 15 15 15 15 14 14 12 15 14 13 13 13 13 13 13
18 17 18 17 16 16 16 15 15 16 15 16 13 14 15 15 13 14 13 13 13 13
18 18 18 17 17 17 17 15 15 16 16 16 16 14 16 17 15 14 14 14 13 13
18 18 17 16 17 16 15 15 15 16 15 15 14 12 15 14 17 15 16 15 15 15
18 18 17 17 17 15 15 14 15 14 16 16 16 16 17 14 16 16 17 15 16 16
18 18 18 17 17 15 14 15 13 15 16 16 17 14 17 17 13 15 14 14 15 14
17 17 16 15 14 14 15 13 14 15 14 15 16 16 17 19 15 13 12 12 11 12
Wind_Direction
206 207 212 209 213 215 223 220 204 200 204 204 204 211 208 215 222 208 209 212 220 242
203 209 212 211 207 213 215 219 214 205 204 208 208 213 211 224 221 217 217 217 224 232
202 204 209 207 210 207 207 212 209 208 208 207 210 214 217 224 225 223 225 233 216 228
206 204 203 208 211 207 200 203 208 207 208 211 213 214 217 230 236 226 229 228 226 231
200 204 202 206 206 204 203 204 211 209 207 210 215 216 219 227 234 231 232 232 229 232
201 201 205 202 203 201 203 206 210 211 212 209 215 215 219 228 233 233 235 237 235 239
199 199 203 200 199 200 201 204 210 210 214 213 216 218 222 225 231 235 233 237 240 242
197 199 200 197 198 201 201 207 208 212 215 216 220 221 221 222 226 232 238 239 239 240
191 192 197 197 197 197 206 208 209 212 216 217 221 217 206 217 223 229 235 241 242 245
189 192 196 197 196 199 204 207 210 214 216 220 223 213 206 206 232 235 238 242 246 249
188 192 194 196 198 200 203 206 209 214 216 221 227 207 209 204 230 240 241 241 243 247
187 189 190 195 198 199 203 208 213 216 217 218 228 204 205 197 229 240 242 242 242 244
187 189 191 193 195 195 199 207 211 219 222 222 229 209 205 199 228 236 242 240 241 228
188 190 191 192 194 195 201 209 211 219 222 224 222 230 202 195 220 233 236 241 243 240